Home > Weather > Manama > Past weeks

Flag for Bahrain Weather for the Past 2 Weeks in Manama, Bahrain

Now
63 °F

Clear.


Feels Like: 63 °F
Forecast: 57 / 66 °F
Wind: 17 mph from Northwest

Location: Bahrain International Airport

Current Time: Feb 9, 2016 at 7:28:43 AM

Latest Report: Feb 9, 2016 at 6:00 AM


Visibility: 10 mi

Pressure: 30.12 "Hg

Humidity: 59%

Dew point: 48 °F

Location of ManamaLocation

Historic Weather in Manama — Graph

°F

Manama Temperature Yesterday

Maximum temperature yesterday: 70 °F (at 12:00 PM)
Minimum temperature yesterday: 63 °F (at 4:00 AM)
Average temperature yesterday: 66 °F

High & Low Weather Summary for the Past Weeks

 TemperatureHumidityPressure
High75 °F (Feb 7, 3:00 PM)100% (Feb 6, 6:00 AM)30.36 "Hg (Feb 6, 6:00 AM)
Low50 °F (Jan 29, 3:00 AM)25% (Feb 7, 2:00 PM)29.92 "Hg (Feb 7, 3:00 PM)
Average62 °F64%30.14 "Hg
* Reported Jan 25 6:00 AM — Feb 9 6:00 AM, Manama, Weather by CustomWeather, © 2016

Note: Actual official high and low records may vary slightly from our data, if they occured in-between our weather recording intervals... More about our weather records

Advertising

Manama Weather History for the Previous 24 Hours

 ConditionsComfort  
Time TempWeatherWind HumidityBarometerVisibility
6:00 AM
Tue, Feb 9
63 °FClear.17 mph59%30.12 "Hg10 mi
5:00 AM64 °FClear.21 mph52%30.12 "Hg10 mi
4:00 AM64 °FClear.18 mph56%30.12 "Hg10 mi
3:00 AM64 °FClear.17 mph52%30.12 "Hg10 mi
2:00 AM64 °FClear.14 mph60%30.12 "Hg10 mi
1:00 AM64 °FClear.14 mph60%30.12 "Hg10 mi
12:00 AM64 °FClear.14 mph60%30.12 "Hg10 mi
11:00 PM
Mon, Feb 8
64 °FClear.16 mph60%30.12 "Hg10 mi
10:00 PM66 °FClear.15 mph52%30.09 "Hg10 mi
9:00 PM66 °FClear.13 mph60%30.09 "Hg10 mi
8:00 PM66 °FClear.15 mph64%30.07 "Hg10 mi
7:00 PM66 °FClear.14 mph73%30.07 "Hg10 mi
6:00 PM66 °FClear.16 mph78%30.04 "Hg6 mi
5:00 PM68 °FClear.17 mph78%30.04 "Hg6 mi
4:00 PM68 °FClear.17 mph83%30.01 "Hg6 mi
3:00 PM70 °FPassing clouds.22 mph73%29.98 "Hg6 mi
2:00 PM70 °FPassing clouds.15 mph69%30.01 "HgN/A
1:00 PM70 °FPassing clouds.17 mph69%30.01 "HgN/A
12:00 PM70 °FSunny.16 mph69%30.01 "Hg10 mi
11:00 AM68 °FSunny.18 mph69%30.04 "Hg10 mi
10:00 AM66 °FSunny.13 mph64%30.04 "Hg10 mi
9:00 AM66 °FPassing clouds.3 mph52%30.04 "HgN/A
8:00 AM64 °FPassing clouds.7 mph64%30.01 "HgN/A
7:00 AM63 °FPassing clouds.9 mph77%29.98 "HgN/A
Weather by CustomWeather, © 2016

See weather overviewHow to use our weather pages